Regional Weather Roundup
Issued by NWS

Home | Current Version | Previous Version | Graphics & Text | Print | Product List | Glossary On
Versions: 1 2 3 4 5 6 7 8 9 10 11 12 13 14 15 16 17 18 19 20 21 22 23 24 25 26 27 28 29 30 31 32 33 34 35 36 37 38 39 40 41 42 43 44 45 46 47 48 49 50
000
ASUS43 KLMK 280702
RWRKY
KENTUCKY REGIONAL WEATHER ROUNDUP
NATIONAL WEATHER SERVICE LOUISVILLE KY
300 AM EDT TUE APR 28 2015

NOTE "FAIR" INDICATES FEW OR NO CLOUDS BELOW 12,000 FEET
WITH NO SIGNIFICANT WEATHER AND/OR OBSTRUCTIONS TO VISIBILITY.

KYZ001>023-026-027-061>063-070>075-280800-
WESTERN AND SOUTH CENTRAL KENTUCKY

CITY           SKY/WX    TMP DP  RH WIND       PRES   REMARKS
PADUCAH        CLEAR     48  39  71 NE6       30.04S
HENDERSON      CLEAR     48  39  71 N5        30.05S
OWENSBORO      CLEAR     49  39  68 CALM      30.05S
HOPKINSVILLE   CLEAR     47  41  79 NE9       30.01F
BOWLING GREEN  CLEAR     49  38  65 N3        30.02F
GLASGOW        NOT AVBL
$$

KYZ024-025-028>034-038-045-046-053-280800-
NORTH CENTRAL KENTUCKY

CITY           SKY/WX    TMP DP  RH WIND       PRES   REMARKS
LOUISVILLE/SDF CLEAR     48  38  68 NE5       30.06S
LOUISVILLE/LOU CLEAR     47  38  71 N3        30.06F
FORT KNOX      CLEAR     47  38  71 NE6       30.02F
$$

KYZ035>037-039>044-047>052-055>060-089>105-280800-
NORTHEAST KENTUCKY

CITY           SKY/WX    TMP DP  RH WIND       PRES   REMARKS
LEXINGTON      CLEAR     41  36  82 NE8       30.04F
COVINGTON      CLEAR     45  36  70 E10       30.06F
FRANKFORT      CLEAR     45  36  70 NE6       30.04S
$$

KYZ054-064>069-076>088-106>120-280800-
SOUTHEAST KENTUCKY

CITY           SKY/WX    TMP DP  RH WIND       PRES   REMARKS
JACKSON        PTCLDY    44  35  70 CALM      30.01F
LONDON         CLEAR     48  34  58 NE5       30.02R
SOMERSET       NOT AVBL
MIDDLESBORO    CLEAR     39  38  95 CALM      30.00F
MONTICELLO     SUNNY     42  40  93 CALM      30.03F
$$




USA.gov is the U.S. government's official web portal to all federal, state and local government web resources and services.